Regional Weather Roundup
Issued by NWS

Home | Current Version | Previous Version | Graphics & Text | Print | Product List | Glossary On
Versions: 1 2 3 4 5 6 7 8 9 10 11 12 13 14 15 16 17 18 19 20 21 22 23 24 25 26 27 28 29 30 31 32 33 34 35 36 37 38 39 40 41 42 43 44 45 46 47 48 49 50
000
ASUS43 KBIS 031002
RWRND

NORTH DAKOTA REGIONAL WEATHER ROUNDUP
NATIONAL WEATHER SERVICE BISMARCK ND
500 AM CDT THU SEP 03 2015

NOTE: "FAIR" INDICATES FEW OR NO CLOUDS BELOW 12,000 FEET WITH NO
SIGNIFICANT WEATHER AND/OR OBSTRUCTIONS TO VISIBILITY.


NDZ001>003-009>011-017-031100-
NORTHWEST NORTH DAKOTA

CITY           SKY/WX    TMP DP  RH WIND       PRES   REMARKS
WILLISTON      MOCLDY    68  54  60 N6        29.65F
MINOT          PTCLDY    68  66  93 E5        29.65S
MINOT AFB      PTCLDY    66  66 100 SE7       29.64S
$$

NDZ018>021-031>035-040>046-031100-
SOUTHWEST NORTH DAKOTA

CITY           SKY/WX    TMP DP  RH WIND       PRES   REMARKS
BISMARCK       CLEAR     68  68 100 E8        29.68F FOG
DICKINSON      CLEAR     65  60  84 S10       29.66F
GARRISON         N/A     70  30  22 NE3       29.67S
HETTINGER ARPT CLEAR     54  52  93 CALM      29.71F
$$

NDZ004>008-012>016-024-026-027-054-031100-
NORTHEAST NORTH DAKOTA

CITY           SKY/WX    TMP DP  RH WIND       PRES   REMARKS
GRAND FORKS    CLOUDY    70  67  90 SE13      29.78S
GRND FRKS AFB  CLOUDY    70  68  93 SE9       29.78F
DEVILS LAKE    CLOUDY    73  66  78 SE15      29.72F
$$

NDZ022-023-025-028>030-036>039-047>053-031100-
SOUTHEAST NORTH DAKOTA

CITY           SKY/WX    TMP DP  RH WIND       PRES   REMARKS
FARGO          CLOUDY    74  70  87 SE12G23   29.78F
JAMESTOWN      CLOUDY    74  71  91 SE12      29.74F FOG
$$



USA.gov is the U.S. government's official web portal to all federal, state and local government web resources and services.